星链-36150(STARLINK-36150)

导读 | 豆包AI

STARLINK-36150是美国SpaceX公司于2025年12月11日发射的星链卫星,属于星链低轨宽带互联网星座组网卫星。星链项目旨在通过大规模低轨卫星星座,为全球偏远地区、海上和山区等传统网络覆盖盲区提供高速低延迟的宽带互联网服务。该卫星单星寿命约5年,是SpaceX星链星座计划的组成部分,助力拓展全球卫星互联网覆盖范围。

基本信息
目录编号:
67031
目录名称:
STARLINK-36150
国际标识:
2025-294B
轨道中心:
EARTH
卫星名称:
星链-36150
卫星全名:
星链-36150(STARLINK-36150)
卫星状态:
在轨 (已飞行93 天)
发射日期:
2025-12-11 UTC
国别 :
美国 (US)
星等 :
--
轨道信息
数据来源 国际轨道数据
星历时间: 2026-03-14T04:53:14+0800
8小时前
查看轨道信息
半长轴: 6861.116km
偏心率: 0.0000718
轨道倾角: 43.000°
近地点辐角 247.549°
升交点赤经 14.030°
平近点角 112.529°
近地点: 482.486km
远地点: 483.472km
周期: 94.265分钟
每日圈数: 15.276036
详细信息
固有亮度:
5
最大亮度:
2.5
卫星平台:
Starlink V1.0
覆盖范围:
全球
运营商:
太空探索技术公司
运营商所在国:
美国
制造商(研发单位):
太空探索技术公司
制造商所在国:
美国
使用方式:
暂无
卫星简介
Starlink 计划是 SpaceX 推出的全球卫星互联网项目,通过发射低轨道卫星,为全球尤其是偏远地区提供高速、低延迟的互联网服务。自 2019 年起,Starlink 已部署数千颗卫星,旨在缩小全球数字鸿沟,推动互联网普及。该项目还为军事、航空等行业提供通信支持,带来广泛经济效益。
2D轨道图
3D轨道图
轨道高度分析图
轨道倾角分析图
轨道综合分析图
查看轨道综合分析图